Regional Weather Roundup
Issued by NWS

Home | Current Version | Previous Version | Graphics & Text | Print | Product List | Glossary On
Versions: 1 2 3 4 5 6 7 8 9 10 11 12 13 14 15 16 17 18 19 20 21 22 23 24 25 26 27 28 29 30 31 32 33 34 35 36 37 38 39 40 41 42 43 44 45 46 47 48 49 50
000
ASUS43 KLSX 230810
RWRMO

WEATHER SUMMARY FOR MISSOURI
NATIONAL WEATHER SERVICE SPRINGFIELD MO
300 AM CDT THU MAR 23 2017

NOTE: "FAIR" INDICATES FEW OR NO CLOUDS BELOW 12,000 FEET WITH NO
       SIGNIFICANT WEATHER AND/OR OBSTRUCTIONS TO VISIBILITY.
       CURRENT SKY AND/OR WEATHER CONDITIONS ARE NOT AVAILABLE FOR
       CHILLICOTHE AND FARMINGTON.

MOZ001>031-035>038-043-044-053-054-230900-
...NORTHERN AND WESTERN MISSOURI...

CITY           SKY/WX    TMP DP  RH WIND       PRES   REMARKS
KANSAS CTY INT CLOUDY    50  26  39 SE14      30.14F
KANSAS C DTWN  CLOUDY    52  26  36 SE9       30.14F
LEE`S SUMMIT   CLOUDY    50  26  39 SE10      30.15F
ST JOSEPH      CLOUDY    50  27  40 SE12      30.13F
CHILLICOTHE      N/A     47  19  33 SE12G20   30.20F
KIRKSVILLE     CLOUDY    43  16  33 SE14      30.24F

$$
MOZ066>068-077>081-088>096-101>105-230900-
...SOUTHWEST MISSOURI...

CITY           SKY/WX    TMP DP  RH WIND       PRES   REMARKS
SPRINGFIELD    CLOUDY    50  30  46 SE17G24   30.17S
JOPLIN         CLOUDY    53  37  54 SE16G26   30.12F
BRANSON        CLOUDY    46  32  57 SE14G20   30.22F

$$
MOZ032>034-039>042-045>050-055>058-069>072-230900-
...CENTRAL MISSOURI...

CITY           SKY/WX    TMP DP  RH WIND       PRES   REMARKS
COLUMBIA       CLOUDY    46  23  40 SE10      30.24F
JEFFERSON CITY CLOUDY    48  24  39 E12       30.26F
ROLLA          CLOUDY    45  24  43 SE8       30.24F
SEDALIA        CLOUDY    50  25  37 SE13      30.20F
WHITEMAN AFB   CLOUDY    50  25  37 SE14G20   30.16F
WARRENSBURG    CLOUDY    50  27  40 E13       30.17F
OSAGE BEACH    CLOUDY   N/A N/A N/A SE8G16    30.23F

$$
MOZ051-052-059>065-230900-
...EAST CENTRAL MISSOURI...

CITY           SKY/WX    TMP DP  RH WIND       PRES   REMARKS
ST LOUIS INTL  CLOUDY    44  19  36 SE12      30.31F
SPIRIT OF STL  CLOUDY    44  19  36 SE6       30.31S
ST CHARLES     CLOUDY    42  20  41 MISG      30.31F

$$
MOZ072>076-082>087-097>100-106>115-230900-
...SOUTH CENTRAL AND SOUTHEAST MISSOURI...

CITY           SKY/WX    TMP DP  RH WIND       PRES   REMARKS
CAPE GIRARDEAU CLOUDY    45  22  40 E8        30.31F
FARMINGTON     CLOUDY    44  21  40 E7        30.29F
POPLAR BLUFF   CLOUDY    47  29  49 NE7       30.30S
WEST PLAINS    CLOUDY    48  24  39 E7        30.26F

$$



USA.gov is the U.S. government's official web portal to all federal, state and local government web resources and services.